<?xml version="1.0" encoding="UTF-8" standalone="no" ?>
<gpx xmlns="http://www.topografix.com/GPX/1/1" xmlns:xsi="http://www.w3.org/2001/XMLSchema-instance" xsi:schemaLocation="http://www.topografix.com/GPX/1/1 http://www.topografix.com/GPX/1/1/gpx.xsd" version="1.1" creator="VisuGPX - https://www.visugpx.com">
  <metadata>
    <name>l'antonienne 15 km 14 avril 2019</name>
    <desc><![CDATA[L'antonienne 14 avril 2019 15 km parcours de 15 km]]></desc>
  </metadata>
  <trk>
    <name><![CDATA[20190327072348-Bir7d]]></name>
    <trkseg>
      <trkpt lat="48.7483" lon="2.29361">
        <ele>55</ele>
        <time>2010-01-01T01:00:00 01:00</time>
      </trkpt>
      <trkpt lat="48.74812" lon="2.29318">
        <ele>56</ele>
        <time>2010-01-01T01:00:00 01:00</time>
      </trkpt>
      <trkpt lat="48.74789" lon="2.29278">
        <ele>57</ele>
        <time>2010-01-01T01:00:00 01:00</time>
      </trkpt>
      <trkpt lat="48.74768" lon="2.29255">
        <ele>57</ele>
        <time>2010-01-01T01:00:00 01:00</time>
      </trkpt>
      <trkpt lat="48.74768" lon="2.29255">
        <ele>57</ele>
        <time>2010-01-01T01:00:00 01:00</time>
      </trkpt>
      <trkpt lat="48.74746" lon="2.29216">
        <ele>58</ele>
        <time>2010-01-01T01:00:00 01:00</time>
      </trkpt>
      <trkpt lat="48.7472" lon="2.29166">
        <ele>58</ele>
        <time>2010-01-01T01:00:00 01:00</time>
      </trkpt>
      <trkpt lat="48.74693" lon="2.29092">
        <ele>58</ele>
        <time>2010-01-01T01:00:00 01:00</time>
      </trkpt>
      <trkpt lat="48.74693" lon="2.29092">
        <ele>58</ele>
        <time>2010-01-01T01:00:00 01:00</time>
      </trkpt>
      <trkpt lat="48.74661" lon="2.29037">
        <ele>57</ele>
        <time>2010-01-01T01:00:00 01:00</time>
      </trkpt>
      <trkpt lat="48.74645" lon="2.29011">
        <ele>56</ele>
        <time>2010-01-01T01:00:00 01:00</time>
      </trkpt>
      <trkpt lat="48.74645" lon="2.29011">
        <ele>56</ele>
        <time>2010-01-01T01:00:00 01:00</time>
      </trkpt>
      <trkpt lat="48.74628" lon="2.28952">
        <ele>56</ele>
        <time>2010-01-01T01:00:00 01:00</time>
      </trkpt>
      <trkpt lat="48.74608" lon="2.28952">
        <ele>55</ele>
        <time>2010-01-01T01:00:00 01:00</time>
      </trkpt>
      <trkpt lat="48.74596" lon="2.28936">
        <ele>54</ele>
        <time>2010-01-01T01:00:00 01:00</time>
      </trkpt>
      <trkpt lat="48.74596" lon="2.28936">
        <ele>54</ele>
        <time>2010-01-01T01:00:00 01:00</time>
      </trkpt>
      <trkpt lat="48.74581" lon="2.28888">
        <ele>55</ele>
        <time>2010-01-01T01:00:00 01:00</time>
      </trkpt>
      <trkpt lat="48.74564" lon="2.28822">
        <ele>56</ele>
        <time>2010-01-01T01:00:00 01:00</time>
      </trkpt>
      <trkpt lat="48.74572" lon="2.28765">
        <ele>55</ele>
        <time>2010-01-01T01:00:00 01:00</time>
      </trkpt>
      <trkpt lat="48.74572" lon="2.28765">
        <ele>55</ele>
        <time>2010-01-01T01:00:00 01:00</time>
      </trkpt>
      <trkpt lat="48.74599" lon="2.28728">
        <ele>56</ele>
        <time>2010-01-01T01:00:00 01:00</time>
      </trkpt>
      <trkpt lat="48.74634" lon="2.28694">
        <ele>58</ele>
        <time>2010-01-01T01:00:00 01:00</time>
      </trkpt>
      <trkpt lat="48.74658" lon="2.28667">
        <ele>59</ele>
        <time>2010-01-01T01:00:00 01:00</time>
      </trkpt>
      <trkpt lat="48.74658" lon="2.28667">
        <ele>59</ele>
        <time>2010-01-01T01:00:00 01:00</time>
      </trkpt>
      <trkpt lat="48.74684" lon="2.28622">
        <ele>59</ele>
        <time>2010-01-01T01:00:00 01:00</time>
      </trkpt>
      <trkpt lat="48.74738" lon="2.28566">
        <ele>60</ele>
        <time>2010-01-01T01:00:00 01:00</time>
      </trkpt>
      <trkpt lat="48.74747" lon="2.28554">
        <ele>61</ele>
        <time>2010-01-01T01:00:00 01:00</time>
      </trkpt>
      <trkpt lat="48.74747" lon="2.28554">
        <ele>61</ele>
        <time>2010-01-01T01:00:00 01:00</time>
      </trkpt>
      <trkpt lat="48.74754" lon="2.28546">
        <ele>61</ele>
        <time>2010-01-01T01:00:00 01:00</time>
      </trkpt>
      <trkpt lat="48.74763" lon="2.28533">
        <ele>62</ele>
        <time>2010-01-01T01:00:00 01:00</time>
      </trkpt>
      <trkpt lat="48.74803" lon="2.28485">
        <ele>64</ele>
        <time>2010-01-01T01:00:00 01:00</time>
      </trkpt>
      <trkpt lat="48.74816" lon="2.2849">
        <ele>64</ele>
        <time>2010-01-01T01:00:00 01:00</time>
      </trkpt>
      <trkpt lat="48.74816" lon="2.2849">
        <ele>64</ele>
        <time>2010-01-01T01:00:00 01:00</time>
      </trkpt>
      <trkpt lat="48.74862" lon="2.28418">
        <ele>67</ele>
        <time>2010-01-01T01:00:00 01:00</time>
      </trkpt>
      <trkpt lat="48.74907" lon="2.28417">
        <ele>70</ele>
        <time>2010-01-01T01:00:00 01:00</time>
      </trkpt>
      <trkpt lat="48.74907" lon="2.28417">
        <ele>70</ele>
        <time>2010-01-01T01:00:00 01:00</time>
      </trkpt>
      <trkpt lat="48.7493" lon="2.28393">
        <ele>71</ele>
        <time>2010-01-01T01:00:00 01:00</time>
      </trkpt>
      <trkpt lat="48.74954" lon="2.28348">
        <ele>72</ele>
        <time>2010-01-01T01:00:00 01:00</time>
      </trkpt>
      <trkpt lat="48.75" lon="2.28307">
        <ele>73</ele>
        <time>2010-01-01T01:00:00 01:00</time>
      </trkpt>
      <trkpt lat="48.75" lon="2.28307">
        <ele>73</ele>
        <time>2010-01-01T01:00:00 01:00</time>
      </trkpt>
      <trkpt lat="48.75027" lon="2.283">
        <ele>75</ele>
        <time>2010-01-01T01:00:00 01:00</time>
      </trkpt>
      <trkpt lat="48.75041" lon="2.28275">
        <ele>75</ele>
        <time>2010-01-01T01:00:00 01:00</time>
      </trkpt>
      <trkpt lat="48.75085" lon="2.28247">
        <ele>76</ele>
        <time>2010-01-01T01:00:00 01:00</time>
      </trkpt>
      <trkpt lat="48.75085" lon="2.28247">
        <ele>76</ele>
        <time>2010-01-01T01:00:00 01:00</time>
      </trkpt>
      <trkpt lat="48.75142" lon="2.2821">
        <ele>80</ele>
        <time>2010-01-01T01:00:00 01:00</time>
      </trkpt>
      <trkpt lat="48.75202" lon="2.28239">
        <ele>81</ele>
        <time>2010-01-01T01:00:00 01:00</time>
      </trkpt>
      <trkpt lat="48.75202" lon="2.28239">
        <ele>81</ele>
        <time>2010-01-01T01:00:00 01:00</time>
      </trkpt>
      <trkpt lat="48.75227" lon="2.28256">
        <ele>81</ele>
        <time>2010-01-01T01:00:00 01:00</time>
      </trkpt>
      <trkpt lat="48.75246" lon="2.28249">
        <ele>81</ele>
        <time>2010-01-01T01:00:00 01:00</time>
      </trkpt>
      <trkpt lat="48.7529" lon="2.28262">
        <ele>84</ele>
        <time>2010-01-01T01:00:00 01:00</time>
      </trkpt>
      <trkpt lat="48.7529" lon="2.28262">
        <ele>84</ele>
        <time>2010-01-01T01:00:00 01:00</time>
      </trkpt>
      <trkpt lat="48.75335" lon="2.28278">
        <ele>86</ele>
        <time>2010-01-01T01:00:00 01:00</time>
      </trkpt>
      <trkpt lat="48.75399" lon="2.28312">
        <ele>88</ele>
        <time>2010-01-01T01:00:00 01:00</time>
      </trkpt>
      <trkpt lat="48.75399" lon="2.28312">
        <ele>88</ele>
        <time>2010-01-01T01:00:00 01:00</time>
      </trkpt>
      <trkpt lat="48.75418" lon="2.28328">
        <ele>88</ele>
        <time>2010-01-01T01:00:00 01:00</time>
      </trkpt>
      <trkpt lat="48.75429" lon="2.2834">
        <ele>88</ele>
        <time>2010-01-01T01:00:00 01:00</time>
      </trkpt>
      <trkpt lat="48.75452" lon="2.28339">
        <ele>88</ele>
        <time>2010-01-01T01:00:00 01:00</time>
      </trkpt>
      <trkpt lat="48.75472" lon="2.28349">
        <ele>88</ele>
        <time>2010-01-01T01:00:00 01:00</time>
      </trkpt>
      <trkpt lat="48.75472" lon="2.28349">
        <ele>88</ele>
        <time>2010-01-01T01:00:00 01:00</time>
      </trkpt>
      <trkpt lat="48.75496" lon="2.28353">
        <ele>88</ele>
        <time>2010-01-01T01:00:00 01:00</time>
      </trkpt>
      <trkpt lat="48.75525" lon="2.28383">
        <ele>88</ele>
        <time>2010-01-01T01:00:00 01:00</time>
      </trkpt>
      <trkpt lat="48.75548" lon="2.28372">
        <ele>89</ele>
        <time>2010-01-01T01:00:00 01:00</time>
      </trkpt>
      <trkpt lat="48.75548" lon="2.28372">
        <ele>89</ele>
        <time>2010-01-01T01:00:00 01:00</time>
      </trkpt>
      <trkpt lat="48.75584" lon="2.28391">
        <ele>89</ele>
        <time>2010-01-01T01:00:00 01:00</time>
      </trkpt>
      <trkpt lat="48.75604" lon="2.28403">
        <ele>89</ele>
        <time>2010-01-01T01:00:00 01:00</time>
      </trkpt>
      <trkpt lat="48.75904" lon="2.28462">
        <ele>92</ele>
        <time>2010-01-01T01:00:00 01:00</time>
      </trkpt>
      <trkpt lat="48.75904" lon="2.28462">
        <ele>92</ele>
        <time>2010-01-01T01:00:00 01:00</time>
      </trkpt>
      <trkpt lat="48.75933" lon="2.28454">
        <ele>92</ele>
        <time>2010-01-01T01:00:00 01:00</time>
      </trkpt>
      <trkpt lat="48.75961" lon="2.28463">
        <ele>90</ele>
        <time>2010-01-01T01:00:00 01:00</time>
      </trkpt>
      <trkpt lat="48.76018" lon="2.28439">
        <ele>90</ele>
        <time>2010-01-01T01:00:00 01:00</time>
      </trkpt>
      <trkpt lat="48.76018" lon="2.28439">
        <ele>90</ele>
        <time>2010-01-01T01:00:00 01:00</time>
      </trkpt>
      <trkpt lat="48.76017" lon="2.28458">
        <ele>89</ele>
        <time>2010-01-01T01:00:00 01:00</time>
      </trkpt>
      <trkpt lat="48.76012" lon="2.28477">
        <ele>88</ele>
        <time>2010-01-01T01:00:00 01:00</time>
      </trkpt>
      <trkpt lat="48.76043" lon="2.28499">
        <ele>86</ele>
        <time>2010-01-01T01:00:00 01:00</time>
      </trkpt>
      <trkpt lat="48.76077" lon="2.28503">
        <ele>85</ele>
        <time>2010-01-01T01:00:00 01:00</time>
      </trkpt>
      <trkpt lat="48.76077" lon="2.28503">
        <ele>85</ele>
        <time>2010-01-01T01:00:00 01:00</time>
      </trkpt>
      <trkpt lat="48.761" lon="2.2849">
        <ele>85</ele>
        <time>2010-01-01T01:00:00 01:00</time>
      </trkpt>
      <trkpt lat="48.76144" lon="2.28476">
        <ele>84</ele>
        <time>2010-01-01T01:00:00 01:00</time>
      </trkpt>
      <trkpt lat="48.76202" lon="2.28506">
        <ele>82</ele>
        <time>2010-01-01T01:00:00 01:00</time>
      </trkpt>
      <trkpt lat="48.76202" lon="2.28506">
        <ele>82</ele>
        <time>2010-01-01T01:00:00 01:00</time>
      </trkpt>
      <trkpt lat="48.7623" lon="2.28502">
        <ele>82</ele>
        <time>2010-01-01T01:00:00 01:00</time>
      </trkpt>
      <trkpt lat="48.76267" lon="2.28491">
        <ele>83</ele>
        <time>2010-01-01T01:00:00 01:00</time>
      </trkpt>
      <trkpt lat="48.76401" lon="2.28486">
        <ele>84</ele>
        <time>2010-01-01T01:00:00 01:00</time>
      </trkpt>
      <trkpt lat="48.76401" lon="2.28486">
        <ele>84</ele>
        <time>2010-01-01T01:00:00 01:00</time>
      </trkpt>
      <trkpt lat="48.76466" lon="2.28499">
        <ele>85</ele>
        <time>2010-01-01T01:00:00 01:00</time>
      </trkpt>
      <trkpt lat="48.7653" lon="2.28502">
        <ele>86</ele>
        <time>2010-01-01T01:00:00 01:00</time>
      </trkpt>
      <trkpt lat="48.7653" lon="2.28502">
        <ele>86</ele>
        <time>2010-01-01T01:00:00 01:00</time>
      </trkpt>
      <trkpt lat="48.76563" lon="2.28496">
        <ele>87</ele>
        <time>2010-01-01T01:00:00 01:00</time>
      </trkpt>
      <trkpt lat="48.76574" lon="2.28476">
        <ele>87</ele>
        <time>2010-01-01T01:00:00 01:00</time>
      </trkpt>
      <trkpt lat="48.76588" lon="2.28474">
        <ele>87</ele>
        <time>2010-01-01T01:00:00 01:00</time>
      </trkpt>
      <trkpt lat="48.76588" lon="2.28474">
        <ele>87</ele>
        <time>2010-01-01T01:00:00 01:00</time>
      </trkpt>
      <trkpt lat="48.76595" lon="2.28329">
        <ele>91</ele>
        <time>2010-01-01T01:00:00 01:00</time>
      </trkpt>
      <trkpt lat="48.76598" lon="2.28207">
        <ele>94</ele>
        <time>2010-01-01T01:00:00 01:00</time>
      </trkpt>
      <trkpt lat="48.76598" lon="2.28207">
        <ele>94</ele>
        <time>2010-01-01T01:00:00 01:00</time>
      </trkpt>
      <trkpt lat="48.76603" lon="2.28145">
        <ele>95</ele>
        <time>2010-01-01T01:00:00 01:00</time>
      </trkpt>
      <trkpt lat="48.76618" lon="2.28136">
        <ele>96</ele>
        <time>2010-01-01T01:00:00 01:00</time>
      </trkpt>
      <trkpt lat="48.76615" lon="2.28123">
        <ele>96</ele>
        <time>2010-01-01T01:00:00 01:00</time>
      </trkpt>
      <trkpt lat="48.76615" lon="2.28123">
        <ele>96</ele>
        <time>2010-01-01T01:00:00 01:00</time>
      </trkpt>
      <trkpt lat="48.76602" lon="2.28134">
        <ele>95</ele>
        <time>2010-01-01T01:00:00 01:00</time>
      </trkpt>
      <trkpt lat="48.76587" lon="2.28014">
        <ele>95</ele>
        <time>2010-01-01T01:00:00 01:00</time>
      </trkpt>
      <trkpt lat="48.76573" lon="2.28025">
        <ele>94</ele>
        <time>2010-01-01T01:00:00 01:00</time>
      </trkpt>
      <trkpt lat="48.76573" lon="2.28025">
        <ele>94</ele>
        <time>2010-01-01T01:00:00 01:00</time>
      </trkpt>
      <trkpt lat="48.7656" lon="2.28023">
        <ele>94</ele>
        <time>2010-01-01T01:00:00 01:00</time>
      </trkpt>
      <trkpt lat="48.76559" lon="2.28016">
        <ele>94</ele>
        <time>2010-01-01T01:00:00 01:00</time>
      </trkpt>
      <trkpt lat="48.76573" lon="2.28018">
        <ele>94</ele>
        <time>2010-01-01T01:00:00 01:00</time>
      </trkpt>
      <trkpt lat="48.76602" lon="2.27993">
        <ele>96</ele>
        <time>2010-01-01T01:00:00 01:00</time>
      </trkpt>
      <trkpt lat="48.76611" lon="2.27975">
        <ele>97</ele>
        <time>2010-01-01T01:00:00 01:00</time>
      </trkpt>
      <trkpt lat="48.76611" lon="2.27975">
        <ele>97</ele>
        <time>2010-01-01T01:00:00 01:00</time>
      </trkpt>
      <trkpt lat="48.76614" lon="2.27955">
        <ele>98</ele>
        <time>2010-01-01T01:00:00 01:00</time>
      </trkpt>
      <trkpt lat="48.76633" lon="2.27941">
        <ele>99</ele>
        <time>2010-01-01T01:00:00 01:00</time>
      </trkpt>
      <trkpt lat="48.7663" lon="2.27916">
        <ele>100</ele>
        <time>2010-01-01T01:00:00 01:00</time>
      </trkpt>
      <trkpt lat="48.76638" lon="2.27935">
        <ele>100</ele>
        <time>2010-01-01T01:00:00 01:00</time>
      </trkpt>
      <trkpt lat="48.76638" lon="2.27935">
        <ele>100</ele>
        <time>2010-01-01T01:00:00 01:00</time>
      </trkpt>
      <trkpt lat="48.76649" lon="2.27926">
        <ele>100</ele>
        <time>2010-01-01T01:00:00 01:00</time>
      </trkpt>
      <trkpt lat="48.76667" lon="2.27922">
        <ele>101</ele>
        <time>2010-01-01T01:00:00 01:00</time>
      </trkpt>
      <trkpt lat="48.76674" lon="2.2793">
        <ele>100</ele>
        <time>2010-01-01T01:00:00 01:00</time>
      </trkpt>
      <trkpt lat="48.76682" lon="2.27957">
        <ele>99</ele>
        <time>2010-01-01T01:00:00 01:00</time>
      </trkpt>
      <trkpt lat="48.76705" lon="2.27964">
        <ele>99</ele>
        <time>2010-01-01T01:00:00 01:00</time>
      </trkpt>
      <trkpt lat="48.76705" lon="2.27964">
        <ele>99</ele>
        <time>2010-01-01T01:00:00 01:00</time>
      </trkpt>
      <trkpt lat="48.76718" lon="2.2785">
        <ele>103</ele>
        <time>2010-01-01T01:00:00 01:00</time>
      </trkpt>
      <trkpt lat="48.76707" lon="2.27787">
        <ele>105</ele>
        <time>2010-01-01T01:00:00 01:00</time>
      </trkpt>
      <trkpt lat="48.76707" lon="2.27787">
        <ele>105</ele>
        <time>2010-01-01T01:00:00 01:00</time>
      </trkpt>
      <trkpt lat="48.76711" lon="2.27779">
        <ele>105</ele>
        <time>2010-01-01T01:00:00 01:00</time>
      </trkpt>
      <trkpt lat="48.76708" lon="2.27733">
        <ele>106</ele>
        <time>2010-01-01T01:00:00 01:00</time>
      </trkpt>
      <trkpt lat="48.767" lon="2.27729">
        <ele>106</ele>
        <time>2010-01-01T01:00:00 01:00</time>
      </trkpt>
      <trkpt lat="48.76707" lon="2.27685">
        <ele>106</ele>
        <time>2010-01-01T01:00:00 01:00</time>
      </trkpt>
      <trkpt lat="48.76707" lon="2.27685">
        <ele>106</ele>
        <time>2010-01-01T01:00:00 01:00</time>
      </trkpt>
      <trkpt lat="48.76703" lon="2.27627">
        <ele>107</ele>
        <time>2010-01-01T01:00:00 01:00</time>
      </trkpt>
      <trkpt lat="48.76743" lon="2.27584">
        <ele>106</ele>
        <time>2010-01-01T01:00:00 01:00</time>
      </trkpt>
      <trkpt lat="48.76795" lon="2.2745">
        <ele>108</ele>
        <time>2010-01-01T01:00:00 01:00</time>
      </trkpt>
      <trkpt lat="48.76795" lon="2.2745">
        <ele>108</ele>
        <time>2010-01-01T01:00:00 01:00</time>
      </trkpt>
      <trkpt lat="48.76808" lon="2.27396">
        <ele>109</ele>
        <time>2010-01-01T01:00:00 01:00</time>
      </trkpt>
      <trkpt lat="48.7681" lon="2.27364">
        <ele>109</ele>
        <time>2010-01-01T01:00:00 01:00</time>
      </trkpt>
      <trkpt lat="48.76816" lon="2.27346">
        <ele>109</ele>
        <time>2010-01-01T01:00:00 01:00</time>
      </trkpt>
      <trkpt lat="48.76816" lon="2.27346">
        <ele>109</ele>
        <time>2010-01-01T01:00:00 01:00</time>
      </trkpt>
      <trkpt lat="48.76822" lon="2.27358">
        <ele>108</ele>
        <time>2010-01-01T01:00:00 01:00</time>
      </trkpt>
      <trkpt lat="48.76835" lon="2.2733">
        <ele>108</ele>
        <time>2010-01-01T01:00:00 01:00</time>
      </trkpt>
      <trkpt lat="48.76887" lon="2.27357">
        <ele>105</ele>
        <time>2010-01-01T01:00:00 01:00</time>
      </trkpt>
      <trkpt lat="48.76926" lon="2.27374">
        <ele>103</ele>
        <time>2010-01-01T01:00:00 01:00</time>
      </trkpt>
      <trkpt lat="48.76926" lon="2.27374">
        <ele>103</ele>
        <time>2010-01-01T01:00:00 01:00</time>
      </trkpt>
      <trkpt lat="48.76941" lon="2.27381">
        <ele>102</ele>
        <time>2010-01-01T01:00:00 01:00</time>
      </trkpt>
      <trkpt lat="48.76971" lon="2.27392">
        <ele>100</ele>
        <time>2010-01-01T01:00:00 01:00</time>
      </trkpt>
      <trkpt lat="48.76992" lon="2.274">
        <ele>98</ele>
        <time>2010-01-01T01:00:00 01:00</time>
      </trkpt>
      <trkpt lat="48.76992" lon="2.274">
        <ele>98</ele>
        <time>2010-01-01T01:00:00 01:00</time>
      </trkpt>
      <trkpt lat="48.7701" lon="2.27405">
        <ele>97</ele>
        <time>2010-01-01T01:00:00 01:00</time>
      </trkpt>
      <trkpt lat="48.77022" lon="2.27384">
        <ele>96</ele>
        <time>2010-01-01T01:00:00 01:00</time>
      </trkpt>
      <trkpt lat="48.77021" lon="2.27376">
        <ele>96</ele>
        <time>2010-01-01T01:00:00 01:00</time>
      </trkpt>
      <trkpt lat="48.77015" lon="2.27344">
        <ele>96</ele>
        <time>2010-01-01T01:00:00 01:00</time>
      </trkpt>
      <trkpt lat="48.77011" lon="2.27324">
        <ele>96</ele>
        <time>2010-01-01T01:00:00 01:00</time>
      </trkpt>
      <trkpt lat="48.77011" lon="2.27324">
        <ele>96</ele>
        <time>2010-01-01T01:00:00 01:00</time>
      </trkpt>
      <trkpt lat="48.77015" lon="2.27319">
        <ele>96</ele>
        <time>2010-01-01T01:00:00 01:00</time>
      </trkpt>
      <trkpt lat="48.77012" lon="2.27294">
        <ele>96</ele>
        <time>2010-01-01T01:00:00 01:00</time>
      </trkpt>
      <trkpt lat="48.77012" lon="2.27293">
        <ele>96</ele>
        <time>2010-01-01T01:00:00 01:00</time>
      </trkpt>
      <trkpt lat="48.77012" lon="2.27272">
        <ele>97</ele>
        <time>2010-01-01T01:00:00 01:00</time>
      </trkpt>
      <trkpt lat="48.77011" lon="2.27257">
        <ele>97</ele>
        <time>2010-01-01T01:00:00 01:00</time>
      </trkpt>
      <trkpt lat="48.7703" lon="2.2725">
        <ele>96</ele>
        <time>2010-01-01T01:00:00 01:00</time>
      </trkpt>
      <trkpt lat="48.7703" lon="2.2725">
        <ele>96</ele>
        <time>2010-01-01T01:00:00 01:00</time>
      </trkpt>
      <trkpt lat="48.77049" lon="2.27244">
        <ele>96</ele>
        <time>2010-01-01T01:00:00 01:00</time>
      </trkpt>
      <trkpt lat="48.77064" lon="2.27238">
        <ele>96</ele>
        <time>2010-01-01T01:00:00 01:00</time>
      </trkpt>
      <trkpt lat="48.77081" lon="2.27229">
        <ele>96</ele>
        <time>2010-01-01T01:00:00 01:00</time>
      </trkpt>
      <trkpt lat="48.77083" lon="2.27225">
        <ele>96</ele>
        <time>2010-01-01T01:00:00 01:00</time>
      </trkpt>
      <trkpt lat="48.77083" lon="2.27225">
        <ele>96</ele>
        <time>2010-01-01T01:00:00 01:00</time>
      </trkpt>
      <trkpt lat="48.77078" lon="2.27198">
        <ele>97</ele>
        <time>2010-01-01T01:00:00 01:00</time>
      </trkpt>
      <trkpt lat="48.77071" lon="2.27171">
        <ele>98</ele>
        <time>2010-01-01T01:00:00 01:00</time>
      </trkpt>
      <trkpt lat="48.77065" lon="2.27149">
        <ele>99</ele>
        <time>2010-01-01T01:00:00 01:00</time>
      </trkpt>
      <trkpt lat="48.7706" lon="2.27128">
        <ele>99</ele>
        <time>2010-01-01T01:00:00 01:00</time>
      </trkpt>
      <trkpt lat="48.7706" lon="2.27128">
        <ele>99</ele>
        <time>2010-01-01T01:00:00 01:00</time>
      </trkpt>
      <trkpt lat="48.77054" lon="2.27105">
        <ele>100</ele>
        <time>2010-01-01T01:00:00 01:00</time>
      </trkpt>
      <trkpt lat="48.77048" lon="2.27077">
        <ele>100</ele>
        <time>2010-01-01T01:00:00 01:00</time>
      </trkpt>
      <trkpt lat="48.77044" lon="2.27065">
        <ele>100</ele>
        <time>2010-01-01T01:00:00 01:00</time>
      </trkpt>
      <trkpt lat="48.77028" lon="2.27054">
        <ele>101</ele>
        <time>2010-01-01T01:00:00 01:00</time>
      </trkpt>
      <trkpt lat="48.77023" lon="2.27026">
        <ele>102</ele>
        <time>2010-01-01T01:00:00 01:00</time>
      </trkpt>
      <trkpt lat="48.77023" lon="2.27026">
        <ele>102</ele>
        <time>2010-01-01T01:00:00 01:00</time>
      </trkpt>
      <trkpt lat="48.77033" lon="2.27003">
        <ele>102</ele>
        <time>2010-01-01T01:00:00 01:00</time>
      </trkpt>
      <trkpt lat="48.77036" lon="2.27003">
        <ele>102</ele>
        <time>2010-01-01T01:00:00 01:00</time>
      </trkpt>
      <trkpt lat="48.77051" lon="2.26999">
        <ele>101</ele>
        <time>2010-01-01T01:00:00 01:00</time>
      </trkpt>
      <trkpt lat="48.77054" lon="2.26983">
        <ele>102</ele>
        <time>2010-01-01T01:00:00 01:00</time>
      </trkpt>
      <trkpt lat="48.7707" lon="2.26979">
        <ele>101</ele>
        <time>2010-01-01T01:00:00 01:00</time>
      </trkpt>
      <trkpt lat="48.7707" lon="2.26979">
        <ele>101</ele>
        <time>2010-01-01T01:00:00 01:00</time>
      </trkpt>
      <trkpt lat="48.77082" lon="2.26963">
        <ele>101</ele>
        <time>2010-01-01T01:00:00 01:00</time>
      </trkpt>
      <trkpt lat="48.77091" lon="2.26945">
        <ele>102</ele>
        <time>2010-01-01T01:00:00 01:00</time>
      </trkpt>
      <trkpt lat="48.77098" lon="2.26936">
        <ele>102</ele>
        <time>2010-01-01T01:00:00 01:00</time>
      </trkpt>
      <trkpt lat="48.77111" lon="2.26928">
        <ele>102</ele>
        <time>2010-01-01T01:00:00 01:00</time>
      </trkpt>
      <trkpt lat="48.77117" lon="2.26922">
        <ele>102</ele>
        <time>2010-01-01T01:00:00 01:00</time>
      </trkpt>
      <trkpt lat="48.77117" lon="2.26922">
        <ele>102</ele>
        <time>2010-01-01T01:00:00 01:00</time>
      </trkpt>
      <trkpt lat="48.77131" lon="2.26907">
        <ele>101</ele>
        <time>2010-01-01T01:00:00 01:00</time>
      </trkpt>
      <trkpt lat="48.77142" lon="2.26899">
        <ele>101</ele>
        <time>2010-01-01T01:00:00 01:00</time>
      </trkpt>
      <trkpt lat="48.77149" lon="2.26902">
        <ele>101</ele>
        <time>2010-01-01T01:00:00 01:00</time>
      </trkpt>
      <trkpt lat="48.77161" lon="2.26919">
        <ele>100</ele>
        <time>2010-01-01T01:00:00 01:00</time>
      </trkpt>
      <trkpt lat="48.77162" lon="2.2692">
        <ele>100</ele>
        <time>2010-01-01T01:00:00 01:00</time>
      </trkpt>
      <trkpt lat="48.77162" lon="2.2692">
        <ele>100</ele>
        <time>2010-01-01T01:00:00 01:00</time>
      </trkpt>
      <trkpt lat="48.77164" lon="2.26922">
        <ele>100</ele>
        <time>2010-01-01T01:00:00 01:00</time>
      </trkpt>
      <trkpt lat="48.77171" lon="2.26939">
        <ele>100</ele>
        <time>2010-01-01T01:00:00 01:00</time>
      </trkpt>
      <trkpt lat="48.77179" lon="2.26961">
        <ele>99</ele>
        <time>2010-01-01T01:00:00 01:00</time>
      </trkpt>
      <trkpt lat="48.77186" lon="2.26981">
        <ele>98</ele>
        <time>2010-01-01T01:00:00 01:00</time>
      </trkpt>
      <trkpt lat="48.77179" lon="2.26992">
        <ele>98</ele>
        <time>2010-01-01T01:00:00 01:00</time>
      </trkpt>
      <trkpt lat="48.77179" lon="2.26992">
        <ele>98</ele>
        <time>2010-01-01T01:00:00 01:00</time>
      </trkpt>
      <trkpt lat="48.77173" lon="2.27021">
        <ele>99</ele>
        <time>2010-01-01T01:00:00 01:00</time>
      </trkpt>
      <trkpt lat="48.77182" lon="2.27036">
        <ele>98</ele>
        <time>2010-01-01T01:00:00 01:00</time>
      </trkpt>
      <trkpt lat="48.77181" lon="2.27061">
        <ele>98</ele>
        <time>2010-01-01T01:00:00 01:00</time>
      </trkpt>
      <trkpt lat="48.77178" lon="2.27098">
        <ele>98</ele>
        <time>2010-01-01T01:00:00 01:00</time>
      </trkpt>
      <trkpt lat="48.77178" lon="2.27098">
        <ele>98</ele>
        <time>2010-01-01T01:00:00 01:00</time>
      </trkpt>
      <trkpt lat="48.77178" lon="2.27115">
        <ele>97</ele>
        <time>2010-01-01T01:00:00 01:00</time>
      </trkpt>
      <trkpt lat="48.77171" lon="2.27119">
        <ele>98</ele>
        <time>2010-01-01T01:00:00 01:00</time>
      </trkpt>
      <trkpt lat="48.77156" lon="2.27129">
        <ele>98</ele>
        <time>2010-01-01T01:00:00 01:00</time>
      </trkpt>
      <trkpt lat="48.77155" lon="2.27122">
        <ele>98</ele>
        <time>2010-01-01T01:00:00 01:00</time>
      </trkpt>
      <trkpt lat="48.7716" lon="2.27098">
        <ele>99</ele>
        <time>2010-01-01T01:00:00 01:00</time>
      </trkpt>
      <trkpt lat="48.77159" lon="2.27097">
        <ele>99</ele>
        <time>2010-01-01T01:00:00 01:00</time>
      </trkpt>
      <trkpt lat="48.77159" lon="2.27097">
        <ele>99</ele>
        <time>2010-01-01T01:00:00 01:00</time>
      </trkpt>
      <trkpt lat="48.77163" lon="2.27075">
        <ele>99</ele>
        <time>2010-01-01T01:00:00 01:00</time>
      </trkpt>
      <trkpt lat="48.77158" lon="2.27056">
        <ele>99</ele>
        <time>2010-01-01T01:00:00 01:00</time>
      </trkpt>
      <trkpt lat="48.77149" lon="2.27069">
        <ele>99</ele>
        <time>2010-01-01T01:00:00 01:00</time>
      </trkpt>
      <trkpt lat="48.77132" lon="2.27085">
        <ele>99</ele>
        <time>2010-01-01T01:00:00 01:00</time>
      </trkpt>
      <trkpt lat="48.77121" lon="2.27101">
        <ele>99</ele>
        <time>2010-01-01T01:00:00 01:00</time>
      </trkpt>
      <trkpt lat="48.77121" lon="2.27101">
        <ele>99</ele>
        <time>2010-01-01T01:00:00 01:00</time>
      </trkpt>
      <trkpt lat="48.77108" lon="2.27115">
        <ele>99</ele>
        <time>2010-01-01T01:00:00 01:00</time>
      </trkpt>
      <trkpt lat="48.77116" lon="2.27153">
        <ele>98</ele>
        <time>2010-01-01T01:00:00 01:00</time>
      </trkpt>
      <trkpt lat="48.77126" lon="2.2718">
        <ele>97</ele>
        <time>2010-01-01T01:00:00 01:00</time>
      </trkpt>
      <trkpt lat="48.77142" lon="2.27196">
        <ele>96</ele>
        <time>2010-01-01T01:00:00 01:00</time>
      </trkpt>
      <trkpt lat="48.77142" lon="2.27196">
        <ele>96</ele>
        <time>2010-01-01T01:00:00 01:00</time>
      </trkpt>
      <trkpt lat="48.77156" lon="2.27204">
        <ele>95</ele>
        <time>2010-01-01T01:00:00 01:00</time>
      </trkpt>
      <trkpt lat="48.77163" lon="2.272">
        <ele>95</ele>
        <time>2010-01-01T01:00:00 01:00</time>
      </trkpt>
      <trkpt lat="48.77185" lon="2.2719">
        <ele>95</ele>
        <time>2010-01-01T01:00:00 01:00</time>
      </trkpt>
      <trkpt lat="48.77206" lon="2.2718">
        <ele>95</ele>
        <time>2010-01-01T01:00:00 01:00</time>
      </trkpt>
      <trkpt lat="48.77206" lon="2.2718">
        <ele>95</ele>
        <time>2010-01-01T01:00:00 01:00</time>
      </trkpt>
      <trkpt lat="48.77216" lon="2.27177">
        <ele>95</ele>
        <time>2010-01-01T01:00:00 01:00</time>
      </trkpt>
      <trkpt lat="48.77233" lon="2.27173">
        <ele>95</ele>
        <time>2010-01-01T01:00:00 01:00</time>
      </trkpt>
      <trkpt lat="48.77232" lon="2.27173">
        <ele>95</ele>
        <time>2010-01-01T01:00:00 01:00</time>
      </trkpt>
      <trkpt lat="48.77243" lon="2.27167">
        <ele>94</ele>
        <time>2010-01-01T01:00:00 01:00</time>
      </trkpt>
      <trkpt lat="48.77261" lon="2.27154">
        <ele>94</ele>
        <time>2010-01-01T01:00:00 01:00</time>
      </trkpt>
      <trkpt lat="48.77268" lon="2.2715">
        <ele>95</ele>
        <time>2010-01-01T01:00:00 01:00</time>
      </trkpt>
      <trkpt lat="48.77268" lon="2.2715">
        <ele>95</ele>
        <time>2010-01-01T01:00:00 01:00</time>
      </trkpt>
      <trkpt lat="48.77279" lon="2.27135">
        <ele>95</ele>
        <time>2010-01-01T01:00:00 01:00</time>
      </trkpt>
      <trkpt lat="48.7728" lon="2.27135">
        <ele>95</ele>
        <time>2010-01-01T01:00:00 01:00</time>
      </trkpt>
      <trkpt lat="48.77289" lon="2.27119">
        <ele>96</ele>
        <time>2010-01-01T01:00:00 01:00</time>
      </trkpt>
      <trkpt lat="48.77289" lon="2.2712">
        <ele>96</ele>
        <time>2010-01-01T01:00:00 01:00</time>
      </trkpt>
      <trkpt lat="48.77298" lon="2.27101">
        <ele>96</ele>
        <time>2010-01-01T01:00:00 01:00</time>
      </trkpt>
      <trkpt lat="48.77306" lon="2.27081">
        <ele>97</ele>
        <time>2010-01-01T01:00:00 01:00</time>
      </trkpt>
      <trkpt lat="48.77306" lon="2.27081">
        <ele>97</ele>
        <time>2010-01-01T01:00:00 01:00</time>
      </trkpt>
      <trkpt lat="48.77307" lon="2.27077">
        <ele>97</ele>
        <time>2010-01-01T01:00:00 01:00</time>
      </trkpt>
      <trkpt lat="48.77314" lon="2.2706">
        <ele>98</ele>
        <time>2010-01-01T01:00:00 01:00</time>
      </trkpt>
      <trkpt lat="48.77316" lon="2.27049">
        <ele>98</ele>
        <time>2010-01-01T01:00:00 01:00</time>
      </trkpt>
      <trkpt lat="48.7732" lon="2.27025">
        <ele>98</ele>
        <time>2010-01-01T01:00:00 01:00</time>
      </trkpt>
      <trkpt lat="48.77322" lon="2.2702">
        <ele>98</ele>
        <time>2010-01-01T01:00:00 01:00</time>
      </trkpt>
      <trkpt lat="48.77321" lon="2.27019">
        <ele>98</ele>
        <time>2010-01-01T01:00:00 01:00</time>
      </trkpt>
      <trkpt lat="48.77321" lon="2.27013">
        <ele>98</ele>
        <time>2010-01-01T01:00:00 01:00</time>
      </trkpt>
      <trkpt lat="48.77322" lon="2.27005">
        <ele>98</ele>
        <time>2010-01-01T01:00:00 01:00</time>
      </trkpt>
      <trkpt lat="48.77322" lon="2.27005">
        <ele>98</ele>
        <time>2010-01-01T01:00:00 01:00</time>
      </trkpt>
      <trkpt lat="48.77323" lon="2.26993">
        <ele>99</ele>
        <time>2010-01-01T01:00:00 01:00</time>
      </trkpt>
      <trkpt lat="48.77318" lon="2.26968">
        <ele>99</ele>
        <time>2010-01-01T01:00:00 01:00</time>
      </trkpt>
      <trkpt lat="48.77314" lon="2.26955">
        <ele>100</ele>
        <time>2010-01-01T01:00:00 01:00</time>
      </trkpt>
      <trkpt lat="48.77317" lon="2.26945">
        <ele>100</ele>
        <time>2010-01-01T01:00:00 01:00</time>
      </trkpt>
      <trkpt lat="48.7732" lon="2.26934">
        <ele>101</ele>
        <time>2010-01-01T01:00:00 01:00</time>
      </trkpt>
      <trkpt lat="48.77328" lon="2.26916">
        <ele>102</ele>
        <time>2010-01-01T01:00:00 01:00</time>
      </trkpt>
      <trkpt lat="48.77328" lon="2.26916">
        <ele>102</ele>
        <time>2010-01-01T01:00:00 01:00</time>
      </trkpt>
      <trkpt lat="48.77335" lon="2.26903">
        <ele>103</ele>
        <time>2010-01-01T01:00:00 01:00</time>
      </trkpt>
      <trkpt lat="48.77343" lon="2.26898">
        <ele>104</ele>
        <time>2010-01-01T01:00:00 01:00</time>
      </trkpt>
      <trkpt lat="48.77348" lon="2.26896">
        <ele>104</ele>
        <time>2010-01-01T01:00:00 01:00</time>
      </trkpt>
      <trkpt lat="48.77355" lon="2.26898">
        <ele>105</ele>
        <time>2010-01-01T01:00:00 01:00</time>
      </trkpt>
      <trkpt lat="48.77354" lon="2.269">
        <ele>105</ele>
        <time>2010-01-01T01:00:00 01:00</time>
      </trkpt>
      <trkpt lat="48.77354" lon="2.26894">
        <ele>105</ele>
        <time>2010-01-01T01:00:00 01:00</time>
      </trkpt>
      <trkpt lat="48.77362" lon="2.26903">
        <ele>105</ele>
        <time>2010-01-01T01:00:00 01:00</time>
      </trkpt>
      <trkpt lat="48.77363" lon="2.26903">
        <ele>105</ele>
        <time>2010-01-01T01:00:00 01:00</time>
      </trkpt>
      <trkpt lat="48.77363" lon="2.26903">
        <ele>105</ele>
        <time>2010-01-01T01:00:00 01:00</time>
      </trkpt>
      <trkpt lat="48.77367" lon="2.26911">
        <ele>105</ele>
        <time>2010-01-01T01:00:00 01:00</time>
      </trkpt>
      <trkpt lat="48.77376" lon="2.26897">
        <ele>107</ele>
        <time>2010-01-01T01:00:00 01:00</time>
      </trkpt>
      <trkpt lat="48.77379" lon="2.26878">
        <ele>108</ele>
        <time>2010-01-01T01:00:00 01:00</time>
      </trkpt>
      <trkpt lat="48.77386" lon="2.26855">
        <ele>110</ele>
        <time>2010-01-01T01:00:00 01:00</time>
      </trkpt>
      <trkpt lat="48.7739" lon="2.26846">
        <ele>111</ele>
        <time>2010-01-01T01:00:00 01:00</time>
      </trkpt>
      <trkpt lat="48.7739" lon="2.26846">
        <ele>111</ele>
        <time>2010-01-01T01:00:00 01:00</time>
      </trkpt>
      <trkpt lat="48.77408" lon="2.26842">
        <ele>113</ele>
        <time>2010-01-01T01:00:00 01:00</time>
      </trkpt>
      <trkpt lat="48.77337" lon="2.26755">
        <ele>114</ele>
      </trkpt>
      <trkpt lat="48.77337" lon="2.26703">
        <ele>120</ele>
      </trkpt>
      <trkpt lat="48.77315" lon="2.26688">
        <ele>120</ele>
      </trkpt>
      <trkpt lat="48.77265" lon="2.26669">
        <ele>118</ele>
      </trkpt>
      <trkpt lat="48.77261" lon="2.26636">
        <ele>121</ele>
      </trkpt>
      <trkpt lat="48.77272" lon="2.26578">
        <ele>127</ele>
      </trkpt>
      <trkpt lat="48.77285" lon="2.26511">
        <ele>132</ele>
      </trkpt>
      <trkpt lat="48.77279" lon="2.26428">
        <ele>131</ele>
      </trkpt>
      <trkpt lat="48.77277" lon="2.26428">
        <ele>131</ele>
      </trkpt>
      <trkpt lat="48.77299" lon="2.26368">
        <ele>133</ele>
      </trkpt>
      <trkpt lat="48.77249" lon="2.2636">
        <ele>132</ele>
      </trkpt>
      <trkpt lat="48.77249" lon="2.2636">
        <ele>132</ele>
      </trkpt>
      <trkpt lat="48.77215" lon="2.26316">
        <ele>131</ele>
      </trkpt>
      <trkpt lat="48.7722" lon="2.2629">
        <ele>133</ele>
      </trkpt>
      <trkpt lat="48.77223" lon="2.2629">
        <ele>134</ele>
      </trkpt>
      <trkpt lat="48.77236" lon="2.26262">
        <ele>137</ele>
      </trkpt>
      <trkpt lat="48.77215" lon="2.2622">
        <ele>137</ele>
      </trkpt>
      <trkpt lat="48.77186" lon="2.26163">
        <ele>140</ele>
      </trkpt>
      <trkpt lat="48.77186" lon="2.26165">
        <ele>140</ele>
      </trkpt>
      <trkpt lat="48.77139" lon="2.26108">
        <ele>141</ele>
      </trkpt>
      <trkpt lat="48.77116" lon="2.26095">
        <ele>139</ele>
      </trkpt>
      <trkpt lat="48.77085" lon="2.26074">
        <ele>137</ele>
      </trkpt>
      <trkpt lat="48.77062" lon="2.2608">
        <ele>136</ele>
      </trkpt>
      <trkpt lat="48.77062" lon="2.2608">
        <ele>136</ele>
      </trkpt>
      <trkpt lat="48.77033" lon="2.26048">
        <ele>137</ele>
      </trkpt>
      <trkpt lat="48.77033" lon="2.26048">
        <ele>137</ele>
      </trkpt>
      <trkpt lat="48.7703" lon="2.26052">
        <ele>137</ele>
        <time>2010-01-01T01:00:00 01:00</time>
      </trkpt>
      <trkpt lat="48.77015" lon="2.26064">
        <ele>136</ele>
        <time>2010-01-01T01:00:00 01:00</time>
      </trkpt>
      <trkpt lat="48.76975" lon="2.26048">
        <ele>137</ele>
        <time>2010-01-01T01:00:00 01:00</time>
      </trkpt>
      <trkpt lat="48.76965" lon="2.2604">
        <ele>137</ele>
        <time>2010-01-01T01:00:00 01:00</time>
      </trkpt>
      <trkpt lat="48.76965" lon="2.2604">
        <ele>137</ele>
        <time>2010-01-01T01:00:00 01:00</time>
      </trkpt>
      <trkpt lat="48.76941" lon="2.26037">
        <ele>138</ele>
        <time>2010-01-01T01:00:00 01:00</time>
      </trkpt>
      <trkpt lat="48.76926" lon="2.26046">
        <ele>139</ele>
        <time>2010-01-01T01:00:00 01:00</time>
      </trkpt>
      <trkpt lat="48.7692" lon="2.26076">
        <ele>141</ele>
        <time>2010-01-01T01:00:00 01:00</time>
      </trkpt>
      <trkpt lat="48.76925" lon="2.26103">
        <ele>142</ele>
        <time>2010-01-01T01:00:00 01:00</time>
      </trkpt>
      <trkpt lat="48.76925" lon="2.26103">
        <ele>142</ele>
        <time>2010-01-01T01:00:00 01:00</time>
      </trkpt>
      <trkpt lat="48.7693" lon="2.26121">
        <ele>142</ele>
        <time>2010-01-01T01:00:00 01:00</time>
      </trkpt>
      <trkpt lat="48.76923" lon="2.26154">
        <ele>143</ele>
        <time>2010-01-01T01:00:00 01:00</time>
      </trkpt>
      <trkpt lat="48.76933" lon="2.26203">
        <ele>140</ele>
        <time>2010-01-01T01:00:00 01:00</time>
      </trkpt>
      <trkpt lat="48.76904" lon="2.26196">
        <ele>143</ele>
        <time>2010-01-01T01:00:00 01:00</time>
      </trkpt>
      <trkpt lat="48.76904" lon="2.26196">
        <ele>143</ele>
        <time>2010-01-01T01:00:00 01:00</time>
      </trkpt>
      <trkpt lat="48.76886" lon="2.26202">
        <ele>143</ele>
        <time>2010-01-01T01:00:00 01:00</time>
      </trkpt>
      <trkpt lat="48.76851" lon="2.26192">
        <ele>145</ele>
        <time>2010-01-01T01:00:00 01:00</time>
      </trkpt>
      <trkpt lat="48.76837" lon="2.2617">
        <ele>146</ele>
        <time>2010-01-01T01:00:00 01:00</time>
      </trkpt>
      <trkpt lat="48.76837" lon="2.2617">
        <ele>146</ele>
        <time>2010-01-01T01:00:00 01:00</time>
      </trkpt>
      <trkpt lat="48.76828" lon="2.26145">
        <ele>147</ele>
        <time>2010-01-01T01:00:00 01:00</time>
      </trkpt>
      <trkpt lat="48.76816" lon="2.26149">
        <ele>149</ele>
        <time>2010-01-01T01:00:00 01:00</time>
      </trkpt>
      <trkpt lat="48.76811" lon="2.2615">
        <ele>149</ele>
        <time>2010-01-01T01:00:00 01:00</time>
      </trkpt>
      <trkpt lat="48.76808" lon="2.26151">
        <ele>150</ele>
        <time>2010-01-01T01:00:00 01:00</time>
      </trkpt>
      <trkpt lat="48.76802" lon="2.26158">
        <ele>151</ele>
        <time>2010-01-01T01:00:00 01:00</time>
      </trkpt>
      <trkpt lat="48.76801" lon="2.26177">
        <ele>150</ele>
        <time>2010-01-01T01:00:00 01:00</time>
      </trkpt>
      <trkpt lat="48.76801" lon="2.26177">
        <ele>150</ele>
        <time>2010-01-01T01:00:00 01:00</time>
      </trkpt>
      <trkpt lat="48.76794" lon="2.26205">
        <ele>150</ele>
        <time>2010-01-01T01:00:00 01:00</time>
      </trkpt>
      <trkpt lat="48.76794" lon="2.26205">
        <ele>150</ele>
        <time>2010-01-01T01:00:00 01:00</time>
      </trkpt>
      <trkpt lat="48.76765" lon="2.26202">
        <ele>154</ele>
        <time>2010-01-01T01:00:00 01:00</time>
      </trkpt>
      <trkpt lat="48.76765" lon="2.26202">
        <ele>154</ele>
        <time>2010-01-01T01:00:00 01:00</time>
      </trkpt>
      <trkpt lat="48.76733" lon="2.26222">
        <ele>154</ele>
        <time>2010-01-01T01:00:00 01:00</time>
      </trkpt>
      <trkpt lat="48.76733" lon="2.26222">
        <ele>154</ele>
        <time>2010-01-01T01:00:00 01:00</time>
      </trkpt>
      <trkpt lat="48.76719" lon="2.26199">
        <ele>155</ele>
        <time>2010-01-01T01:00:00 01:00</time>
      </trkpt>
      <trkpt lat="48.76719" lon="2.26199">
        <ele>155</ele>
        <time>2010-01-01T01:00:00 01:00</time>
      </trkpt>
      <trkpt lat="48.76718" lon="2.26196">
        <ele>156</ele>
        <time>2010-01-01T01:00:00 01:00</time>
      </trkpt>
      <trkpt lat="48.76717" lon="2.26193">
        <ele>156</ele>
        <time>2010-01-01T01:00:00 01:00</time>
      </trkpt>
      <trkpt lat="48.76712" lon="2.26175">
        <ele>157</ele>
        <time>2010-01-01T01:00:00 01:00</time>
      </trkpt>
      <trkpt lat="48.76712" lon="2.26152">
        <ele>158</ele>
        <time>2010-01-01T01:00:00 01:00</time>
      </trkpt>
      <trkpt lat="48.76715" lon="2.26129">
        <ele>158</ele>
        <time>2010-01-01T01:00:00 01:00</time>
      </trkpt>
      <trkpt lat="48.76718" lon="2.26105">
        <ele>159</ele>
        <time>2010-01-01T01:00:00 01:00</time>
      </trkpt>
      <trkpt lat="48.76718" lon="2.26105">
        <ele>159</ele>
        <time>2010-01-01T01:00:00 01:00</time>
      </trkpt>
      <trkpt lat="48.76716" lon="2.26087">
        <ele>159</ele>
        <time>2010-01-01T01:00:00 01:00</time>
      </trkpt>
      <trkpt lat="48.76711" lon="2.26076">
        <ele>160</ele>
        <time>2010-01-01T01:00:00 01:00</time>
      </trkpt>
      <trkpt lat="48.76696" lon="2.26062">
        <ele>160</ele>
        <time>2010-01-01T01:00:00 01:00</time>
      </trkpt>
      <trkpt lat="48.76667" lon="2.2607">
        <ele>160</ele>
        <time>2010-01-01T01:00:00 01:00</time>
      </trkpt>
      <trkpt lat="48.76625" lon="2.26055">
        <ele>156</ele>
        <time>2010-01-01T01:00:00 01:00</time>
      </trkpt>
      <trkpt lat="48.76625" lon="2.26055">
        <ele>156</ele>
        <time>2010-01-01T01:00:00 01:00</time>
      </trkpt>
      <trkpt lat="48.76612" lon="2.26049">
        <ele>154</ele>
        <time>2010-01-01T01:00:00 01:00</time>
      </trkpt>
      <trkpt lat="48.76608" lon="2.26053">
        <ele>154</ele>
        <time>2010-01-01T01:00:00 01:00</time>
      </trkpt>
      <trkpt lat="48.76605" lon="2.26063">
        <ele>153</ele>
        <time>2010-01-01T01:00:00 01:00</time>
      </trkpt>
      <trkpt lat="48.76605" lon="2.26056">
        <ele>153</ele>
        <time>2010-01-01T01:00:00 01:00</time>
      </trkpt>
      <trkpt lat="48.76601" lon="2.26048">
        <ele>153</ele>
        <time>2010-01-01T01:00:00 01:00</time>
      </trkpt>
      <trkpt lat="48.76586" lon="2.26048">
        <ele>151</ele>
        <time>2010-01-01T01:00:00 01:00</time>
      </trkpt>
      <trkpt lat="48.76576" lon="2.26049">
        <ele>150</ele>
        <time>2010-01-01T01:00:00 01:00</time>
      </trkpt>
      <trkpt lat="48.76576" lon="2.26049">
        <ele>150</ele>
        <time>2010-01-01T01:00:00 01:00</time>
      </trkpt>
      <trkpt lat="48.76572" lon="2.26042">
        <ele>150</ele>
        <time>2010-01-01T01:00:00 01:00</time>
      </trkpt>
      <trkpt lat="48.76566" lon="2.26032">
        <ele>149</ele>
        <time>2010-01-01T01:00:00 01:00</time>
      </trkpt>
      <trkpt lat="48.76566" lon="2.26032">
        <ele>149</ele>
        <time>2010-01-01T01:00:00 01:00</time>
      </trkpt>
      <trkpt lat="48.76563" lon="2.26023">
        <ele>149</ele>
        <time>2010-01-01T01:00:00 01:00</time>
      </trkpt>
      <trkpt lat="48.76563" lon="2.26017">
        <ele>149</ele>
        <time>2010-01-01T01:00:00 01:00</time>
      </trkpt>
      <trkpt lat="48.76551" lon="2.26011">
        <ele>147</ele>
        <time>2010-01-01T01:00:00 01:00</time>
      </trkpt>
      <trkpt lat="48.76554" lon="2.26017">
        <ele>148</ele>
        <time>2010-01-01T01:00:00 01:00</time>
      </trkpt>
      <trkpt lat="48.76549" lon="2.26013">
        <ele>147</ele>
        <time>2010-01-01T01:00:00 01:00</time>
      </trkpt>
      <trkpt lat="48.76544" lon="2.25996">
        <ele>147</ele>
        <time>2010-01-01T01:00:00 01:00</time>
      </trkpt>
      <trkpt lat="48.76544" lon="2.25996">
        <ele>147</ele>
        <time>2010-01-01T01:00:00 01:00</time>
      </trkpt>
      <trkpt lat="48.76545" lon="2.25978">
        <ele>148</ele>
        <time>2010-01-01T01:00:00 01:00</time>
      </trkpt>
      <trkpt lat="48.76549" lon="2.25955">
        <ele>149</ele>
        <time>2010-01-01T01:00:00 01:00</time>
      </trkpt>
      <trkpt lat="48.76552" lon="2.25938">
        <ele>150</ele>
        <time>2010-01-01T01:00:00 01:00</time>
      </trkpt>
      <trkpt lat="48.76559" lon="2.25876">
        <ele>151</ele>
        <time>2010-01-01T01:00:00 01:00</time>
      </trkpt>
      <trkpt lat="48.76564" lon="2.25854">
        <ele>152</ele>
        <time>2010-01-01T01:00:00 01:00</time>
      </trkpt>
      <trkpt lat="48.76564" lon="2.25854">
        <ele>152</ele>
        <time>2010-01-01T01:00:00 01:00</time>
      </trkpt>
      <trkpt lat="48.76562" lon="2.25842">
        <ele>152</ele>
        <time>2010-01-01T01:00:00 01:00</time>
      </trkpt>
      <trkpt lat="48.76543" lon="2.25834">
        <ele>149</ele>
        <time>2010-01-01T01:00:00 01:00</time>
      </trkpt>
      <trkpt lat="48.7653" lon="2.2584">
        <ele>147</ele>
        <time>2010-01-01T01:00:00 01:00</time>
      </trkpt>
      <trkpt lat="48.76518" lon="2.25836">
        <ele>145</ele>
        <time>2010-01-01T01:00:00 01:00</time>
      </trkpt>
      <trkpt lat="48.76507" lon="2.25833">
        <ele>143</ele>
        <time>2010-01-01T01:00:00 01:00</time>
      </trkpt>
      <trkpt lat="48.76507" lon="2.25833">
        <ele>143</ele>
        <time>2010-01-01T01:00:00 01:00</time>
      </trkpt>
      <trkpt lat="48.76493" lon="2.25829">
        <ele>142</ele>
        <time>2010-01-01T01:00:00 01:00</time>
      </trkpt>
      <trkpt lat="48.7649" lon="2.25807">
        <ele>143</ele>
        <time>2010-01-01T01:00:00 01:00</time>
      </trkpt>
      <trkpt lat="48.76477" lon="2.25798">
        <ele>143</ele>
        <time>2010-01-01T01:00:00 01:00</time>
      </trkpt>
      <trkpt lat="48.76482" lon="2.25776">
        <ele>144</ele>
        <time>2010-01-01T01:00:00 01:00</time>
      </trkpt>
      <trkpt lat="48.76482" lon="2.25775">
        <ele>144</ele>
        <time>2010-01-01T01:00:00 01:00</time>
      </trkpt>
      <trkpt lat="48.76482" lon="2.25775">
        <ele>144</ele>
        <time>2010-01-01T01:00:00 01:00</time>
      </trkpt>
      <trkpt lat="48.76481" lon="2.25774">
        <ele>144</ele>
        <time>2010-01-01T01:00:00 01:00</time>
      </trkpt>
      <trkpt lat="48.76478" lon="2.25767">
        <ele>144</ele>
        <time>2010-01-01T01:00:00 01:00</time>
      </trkpt>
      <trkpt lat="48.76478" lon="2.25765">
        <ele>145</ele>
        <time>2010-01-01T01:00:00 01:00</time>
      </trkpt>
      <trkpt lat="48.76472" lon="2.2575">
        <ele>145</ele>
        <time>2010-01-01T01:00:00 01:00</time>
      </trkpt>
      <trkpt lat="48.76467" lon="2.25731">
        <ele>147</ele>
        <time>2010-01-01T01:00:00 01:00</time>
      </trkpt>
      <trkpt lat="48.76463" lon="2.25713">
        <ele>149</ele>
        <time>2010-01-01T01:00:00 01:00</time>
      </trkpt>
      <trkpt lat="48.76459" lon="2.257">
        <ele>151</ele>
        <time>2010-01-01T01:00:00 01:00</time>
      </trkpt>
      <trkpt lat="48.76459" lon="2.257">
        <ele>151</ele>
        <time>2010-01-01T01:00:00 01:00</time>
      </trkpt>
      <trkpt lat="48.76444" lon="2.25667">
        <ele>155</ele>
        <time>2010-01-01T01:00:00 01:00</time>
      </trkpt>
      <trkpt lat="48.76439" lon="2.25651">
        <ele>156</ele>
        <time>2010-01-01T01:00:00 01:00</time>
      </trkpt>
      <trkpt lat="48.76442" lon="2.25637">
        <ele>158</ele>
        <time>2010-01-01T01:00:00 01:00</time>
      </trkpt>
      <trkpt lat="48.76435" lon="2.25626">
        <ele>159</ele>
        <time>2010-01-01T01:00:00 01:00</time>
      </trkpt>
      <trkpt lat="48.76435" lon="2.25626">
        <ele>159</ele>
        <time>2010-01-01T01:00:00 01:00</time>
      </trkpt>
      <trkpt lat="48.76426" lon="2.25617">
        <ele>159</ele>
        <time>2010-01-01T01:00:00 01:00</time>
      </trkpt>
      <trkpt lat="48.76417" lon="2.25604">
        <ele>161</ele>
        <time>2010-01-01T01:00:00 01:00</time>
      </trkpt>
      <trkpt lat="48.76408" lon="2.25614">
        <ele>159</ele>
        <time>2010-01-01T01:00:00 01:00</time>
      </trkpt>
      <trkpt lat="48.76401" lon="2.25626">
        <ele>158</ele>
        <time>2010-01-01T01:00:00 01:00</time>
      </trkpt>
      <trkpt lat="48.76392" lon="2.25622">
        <ele>157</ele>
        <time>2010-01-01T01:00:00 01:00</time>
      </trkpt>
      <trkpt lat="48.76392" lon="2.25622">
        <ele>157</ele>
        <time>2010-01-01T01:00:00 01:00</time>
      </trkpt>
      <trkpt lat="48.76388" lon="2.2562">
        <ele>157</ele>
        <time>2010-01-01T01:00:00 01:00</time>
      </trkpt>
      <trkpt lat="48.76382" lon="2.25615">
        <ele>157</ele>
        <time>2010-01-01T01:00:00 01:00</time>
      </trkpt>
      <trkpt lat="48.76373" lon="2.25602">
        <ele>157</ele>
        <time>2010-01-01T01:00:00 01:00</time>
      </trkpt>
      <trkpt lat="48.7637" lon="2.25592">
        <ele>157</ele>
        <time>2010-01-01T01:00:00 01:00</time>
      </trkpt>
      <trkpt lat="48.76366" lon="2.25578">
        <ele>157</ele>
        <time>2010-01-01T01:00:00 01:00</time>
      </trkpt>
      <trkpt lat="48.7636" lon="2.25552">
        <ele>158</ele>
        <time>2010-01-01T01:00:00 01:00</time>
      </trkpt>
      <trkpt lat="48.76359" lon="2.25545">
        <ele>159</ele>
        <time>2010-01-01T01:00:00 01:00</time>
      </trkpt>
      <trkpt lat="48.76359" lon="2.25545">
        <ele>159</ele>
        <time>2010-01-01T01:00:00 01:00</time>
      </trkpt>
      <trkpt lat="48.76352" lon="2.25517">
        <ele>160</ele>
        <time>2010-01-01T01:00:00 01:00</time>
      </trkpt>
      <trkpt lat="48.76352" lon="2.255">
        <ele>161</ele>
        <time>2010-01-01T01:00:00 01:00</time>
      </trkpt>
      <trkpt lat="48.76352" lon="2.25489">
        <ele>161</ele>
        <time>2010-01-01T01:00:00 01:00</time>
      </trkpt>
      <trkpt lat="48.76349" lon="2.25478">
        <ele>161</ele>
        <time>2010-01-01T01:00:00 01:00</time>
      </trkpt>
      <trkpt lat="48.76352" lon="2.25455">
        <ele>162</ele>
        <time>2010-01-01T01:00:00 01:00</time>
      </trkpt>
      <trkpt lat="48.76352" lon="2.25455">
        <ele>162</ele>
        <time>2010-01-01T01:00:00 01:00</time>
      </trkpt>
      <trkpt lat="48.76354" lon="2.2544">
        <ele>163</ele>
        <time>2010-01-01T01:00:00 01:00</time>
      </trkpt>
      <trkpt lat="48.76347" lon="2.25427">
        <ele>163</ele>
        <time>2010-01-01T01:00:00 01:00</time>
      </trkpt>
      <trkpt lat="48.76333" lon="2.25416">
        <ele>162</ele>
        <time>2010-01-01T01:00:00 01:00</time>
      </trkpt>
      <trkpt lat="48.76332" lon="2.25416">
        <ele>162</ele>
        <time>2010-01-01T01:00:00 01:00</time>
      </trkpt>
      <trkpt lat="48.76314" lon="2.25404">
        <ele>160</ele>
        <time>2010-01-01T01:00:00 01:00</time>
      </trkpt>
      <trkpt lat="48.76302" lon="2.25399">
        <ele>159</ele>
        <time>2010-01-01T01:00:00 01:00</time>
      </trkpt>
      <trkpt lat="48.76302" lon="2.25399">
        <ele>159</ele>
        <time>2010-01-01T01:00:00 01:00</time>
      </trkpt>
      <trkpt lat="48.76284" lon="2.2539">
        <ele>157</ele>
        <time>2010-01-01T01:00:00 01:00</time>
      </trkpt>
      <trkpt lat="48.76275" lon="2.25391">
        <ele>156</ele>
        <time>2010-01-01T01:00:00 01:00</time>
      </trkpt>
      <trkpt lat="48.76266" lon="2.25393">
        <ele>155</ele>
        <time>2010-01-01T01:00:00 01:00</time>
      </trkpt>
      <trkpt lat="48.76262" lon="2.25379">
        <ele>155</ele>
        <time>2010-01-01T01:00:00 01:00</time>
      </trkpt>
      <trkpt lat="48.76259" lon="2.25377">
        <ele>155</ele>
        <time>2010-01-01T01:00:00 01:00</time>
      </trkpt>
      <trkpt lat="48.76259" lon="2.25377">
        <ele>155</ele>
        <time>2010-01-01T01:00:00 01:00</time>
      </trkpt>
      <trkpt lat="48.76254" lon="2.25368">
        <ele>155</ele>
        <time>2010-01-01T01:00:00 01:00</time>
      </trkpt>
      <trkpt lat="48.76232" lon="2.25325">
        <ele>156</ele>
        <time>2010-01-01T01:00:00 01:00</time>
      </trkpt>
      <trkpt lat="48.76221" lon="2.25312">
        <ele>157</ele>
        <time>2010-01-01T01:00:00 01:00</time>
      </trkpt>
      <trkpt lat="48.76219" lon="2.25295">
        <ele>157</ele>
        <time>2010-01-01T01:00:00 01:00</time>
      </trkpt>
      <trkpt lat="48.76219" lon="2.25295">
        <ele>157</ele>
        <time>2010-01-01T01:00:00 01:00</time>
      </trkpt>
      <trkpt lat="48.7622" lon="2.25278">
        <ele>158</ele>
        <time>2010-01-01T01:00:00 01:00</time>
      </trkpt>
      <trkpt lat="48.76221" lon="2.25261">
        <ele>159</ele>
        <time>2010-01-01T01:00:00 01:00</time>
      </trkpt>
      <trkpt lat="48.76221" lon="2.25245">
        <ele>160</ele>
        <time>2010-01-01T01:00:00 01:00</time>
      </trkpt>
      <trkpt lat="48.76224" lon="2.25221">
        <ele>160</ele>
        <time>2010-01-01T01:00:00 01:00</time>
      </trkpt>
      <trkpt lat="48.76236" lon="2.25198">
        <ele>161</ele>
        <time>2010-01-01T01:00:00 01:00</time>
      </trkpt>
      <trkpt lat="48.76236" lon="2.25198">
        <ele>161</ele>
        <time>2010-01-01T01:00:00 01:00</time>
      </trkpt>
      <trkpt lat="48.76272" lon="2.25138">
        <ele>163</ele>
        <time>2010-01-01T01:00:00 01:00</time>
      </trkpt>
      <trkpt lat="48.76272" lon="2.25138">
        <ele>163</ele>
        <time>2010-01-01T01:00:00 01:00</time>
      </trkpt>
      <trkpt lat="48.76287" lon="2.25103">
        <ele>164</ele>
        <time>2010-01-01T01:00:00 01:00</time>
      </trkpt>
      <trkpt lat="48.76292" lon="2.25049">
        <ele>165</ele>
        <time>2010-01-01T01:00:00 01:00</time>
      </trkpt>
      <trkpt lat="48.76315" lon="2.25033">
        <ele>167</ele>
        <time>2010-01-01T01:00:00 01:00</time>
      </trkpt>
      <trkpt lat="48.76343" lon="2.25027">
        <ele>168</ele>
      </trkpt>
      <trkpt lat="48.76353" lon="2.24892">
        <ele>168</ele>
      </trkpt>
      <trkpt lat="48.76352" lon="2.24863">
        <ele>168</ele>
        <time>2010-01-01T01:00:00 01:00</time>
      </trkpt>
      <trkpt lat="48.76366" lon="2.24848">
        <ele>169</ele>
        <time>2010-01-01T01:00:00 01:00</time>
      </trkpt>
      <trkpt lat="48.76353" lon="2.24832">
        <ele>168</ele>
        <time>2010-01-01T01:00:00 01:00</time>
      </trkpt>
      <trkpt lat="48.76265" lon="2.24531">
        <ele>174</ele>
        <time>2010-01-01T01:00:00 01:00</time>
      </trkpt>
      <trkpt lat="48.76265" lon="2.24531">
        <ele>174</ele>
        <time>2010-01-01T01:00:00 01:00</time>
      </trkpt>
      <trkpt lat="48.7614" lon="2.24477">
        <ele>178</ele>
        <time>2010-01-01T01:00:00 01:00</time>
      </trkpt>
      <trkpt lat="48.75945" lon="2.24396">
        <ele>179</ele>
      </trkpt>
      <trkpt lat="48.75741" lon="2.24554">
        <ele>180</ele>
        <time>2010-01-01T01:00:00 01:00</time>
      </trkpt>
      <trkpt lat="48.75172" lon="2.25022">
        <ele>171</ele>
      </trkpt>
      <trkpt lat="48.75251" lon="2.25508">
        <ele>167</ele>
        <time>2010-01-01T01:00:00 01:00</time>
      </trkpt>
      <trkpt lat="48.75251" lon="2.25508">
        <ele>167</ele>
        <time>2010-01-01T01:00:00 01:00</time>
      </trkpt>
      <trkpt lat="48.75242" lon="2.25541">
        <ele>165</ele>
        <time>2010-01-01T01:00:00 01:00</time>
      </trkpt>
      <trkpt lat="48.75195" lon="2.25747">
        <ele>154</ele>
        <time>2010-01-01T01:00:00 01:00</time>
      </trkpt>
      <trkpt lat="48.75168" lon="2.25828">
        <ele>145</ele>
        <time>2010-01-01T01:00:00 01:00</time>
      </trkpt>
      <trkpt lat="48.75168" lon="2.25828">
        <ele>145</ele>
        <time>2010-01-01T01:00:00 01:00</time>
      </trkpt>
      <trkpt lat="48.75168" lon="2.25828">
        <ele>145</ele>
        <time>2010-01-01T01:00:00 01:00</time>
      </trkpt>
      <trkpt lat="48.7517" lon="2.25985">
        <ele>139</ele>
        <time>2010-01-01T01:00:00 01:00</time>
      </trkpt>
      <trkpt lat="48.75234" lon="2.26057">
        <ele>141</ele>
        <time>2010-01-01T01:00:00 01:00</time>
      </trkpt>
      <trkpt lat="48.75234" lon="2.26057">
        <ele>141</ele>
        <time>2010-01-01T01:00:00 01:00</time>
      </trkpt>
      <trkpt lat="48.7523" lon="2.26083">
        <ele>138</ele>
        <time>2010-01-01T01:00:00 01:00</time>
      </trkpt>
      <trkpt lat="48.7523" lon="2.26083">
        <ele>138</ele>
        <time>2010-01-01T01:00:00 01:00</time>
      </trkpt>
      <trkpt lat="48.7522" lon="2.26095">
        <ele>136</ele>
        <time>2010-01-01T01:00:00 01:00</time>
      </trkpt>
      <trkpt lat="48.75196" lon="2.26136">
        <ele>131</ele>
        <time>2010-01-01T01:00:00 01:00</time>
      </trkpt>
      <trkpt lat="48.75195" lon="2.26136">
        <ele>131</ele>
        <time>2010-01-01T01:00:00 01:00</time>
      </trkpt>
      <trkpt lat="48.75195" lon="2.26136">
        <ele>131</ele>
        <time>2010-01-01T01:00:00 01:00</time>
      </trkpt>
      <trkpt lat="48.75173" lon="2.26197">
        <ele>125</ele>
        <time>2010-01-01T01:00:00 01:00</time>
      </trkpt>
      <trkpt lat="48.75173" lon="2.26197">
        <ele>125</ele>
        <time>2010-01-01T01:00:00 01:00</time>
      </trkpt>
      <trkpt lat="48.75153" lon="2.26196">
        <ele>124</ele>
        <time>2010-01-01T01:00:00 01:00</time>
      </trkpt>
      <trkpt lat="48.75153" lon="2.26196">
        <ele>124</ele>
        <time>2010-01-01T01:00:00 01:00</time>
      </trkpt>
      <trkpt lat="48.75147" lon="2.26268">
        <ele>120</ele>
        <time>2010-01-01T01:00:00 01:00</time>
      </trkpt>
      <trkpt lat="48.75147" lon="2.26268">
        <ele>120</ele>
        <time>2010-01-01T01:00:00 01:00</time>
      </trkpt>
      <trkpt lat="48.75233" lon="2.26354">
        <ele>117</ele>
        <time>2010-01-01T01:00:00 01:00</time>
      </trkpt>
      <trkpt lat="48.75233" lon="2.26354">
        <ele>117</ele>
        <time>2010-01-01T01:00:00 01:00</time>
      </trkpt>
      <trkpt lat="48.75206" lon="2.26437">
        <ele>115</ele>
        <time>2010-01-01T01:00:00 01:00</time>
      </trkpt>
      <trkpt lat="48.75206" lon="2.26437">
        <ele>115</ele>
        <time>2010-01-01T01:00:00 01:00</time>
      </trkpt>
      <trkpt lat="48.75285" lon="2.26465">
        <ele>112</ele>
        <time>2010-01-01T01:00:00 01:00</time>
      </trkpt>
      <trkpt lat="48.75285" lon="2.26465">
        <ele>112</ele>
        <time>2010-01-01T01:00:00 01:00</time>
      </trkpt>
      <trkpt lat="48.75293" lon="2.26473">
        <ele>111</ele>
        <time>2010-01-01T01:00:00 01:00</time>
      </trkpt>
      <trkpt lat="48.75295" lon="2.26498">
        <ele>110</ele>
        <time>2010-01-01T01:00:00 01:00</time>
      </trkpt>
      <trkpt lat="48.75344" lon="2.26526">
        <ele>105</ele>
        <time>2010-01-01T01:00:00 01:00</time>
      </trkpt>
      <trkpt lat="48.75316" lon="2.26609">
        <ele>104</ele>
        <time>2010-01-01T01:00:00 01:00</time>
      </trkpt>
      <trkpt lat="48.75316" lon="2.26609">
        <ele>104</ele>
        <time>2010-01-01T01:00:00 01:00</time>
      </trkpt>
      <trkpt lat="48.75344" lon="2.2673">
        <ele>103</ele>
        <time>2010-01-01T01:00:00 01:00</time>
      </trkpt>
      <trkpt lat="48.75292" lon="2.26843">
        <ele>102</ele>
        <time>2010-01-01T01:00:00 01:00</time>
      </trkpt>
      <trkpt lat="48.75292" lon="2.26843">
        <ele>102</ele>
        <time>2010-01-01T01:00:00 01:00</time>
      </trkpt>
      <trkpt lat="48.75241" lon="2.26975">
        <ele>99</ele>
        <time>2010-01-01T01:00:00 01:00</time>
      </trkpt>
      <trkpt lat="48.75241" lon="2.26975">
        <ele>99</ele>
        <time>2010-01-01T01:00:00 01:00</time>
      </trkpt>
      <trkpt lat="48.75223" lon="2.27026">
        <ele>97</ele>
        <time>2010-01-01T01:00:00 01:00</time>
      </trkpt>
      <trkpt lat="48.75223" lon="2.27026">
        <ele>97</ele>
        <time>2010-01-01T01:00:00 01:00</time>
      </trkpt>
      <trkpt lat="48.75241" lon="2.27123">
        <ele>96</ele>
        <time>2010-01-01T01:00:00 01:00</time>
      </trkpt>
      <trkpt lat="48.75241" lon="2.27123">
        <ele>96</ele>
        <time>2010-01-01T01:00:00 01:00</time>
      </trkpt>
      <trkpt lat="48.75205" lon="2.27206">
        <ele>94</ele>
        <time>2010-01-01T01:00:00 01:00</time>
      </trkpt>
      <trkpt lat="48.75205" lon="2.27206">
        <ele>94</ele>
        <time>2010-01-01T01:00:00 01:00</time>
      </trkpt>
      <trkpt lat="48.75173" lon="2.27224">
        <ele>93</ele>
        <time>2010-01-01T01:00:00 01:00</time>
      </trkpt>
      <trkpt lat="48.75173" lon="2.27224">
        <ele>93</ele>
        <time>2010-01-01T01:00:00 01:00</time>
      </trkpt>
      <trkpt lat="48.75174" lon="2.27278">
        <ele>92</ele>
        <time>2010-01-01T01:00:00 01:00</time>
      </trkpt>
      <trkpt lat="48.75174" lon="2.27278">
        <ele>92</ele>
        <time>2010-01-01T01:00:00 01:00</time>
      </trkpt>
      <trkpt lat="48.75173" lon="2.2728">
        <ele>92</ele>
        <time>2010-01-01T01:00:00 01:00</time>
      </trkpt>
      <trkpt lat="48.75174" lon="2.27349">
        <ele>90</ele>
        <time>2010-01-01T01:00:00 01:00</time>
      </trkpt>
      <trkpt lat="48.75184" lon="2.27397">
        <ele>88</ele>
        <time>2010-01-01T01:00:00 01:00</time>
      </trkpt>
      <trkpt lat="48.75184" lon="2.27397">
        <ele>88</ele>
        <time>2010-01-01T01:00:00 01:00</time>
      </trkpt>
      <trkpt lat="48.75184" lon="2.27399">
        <ele>87</ele>
        <time>2010-01-01T01:00:00 01:00</time>
      </trkpt>
      <trkpt lat="48.75189" lon="2.27451">
        <ele>87</ele>
        <time>2010-01-01T01:00:00 01:00</time>
      </trkpt>
      <trkpt lat="48.75201" lon="2.27529">
        <ele>88</ele>
        <time>2010-01-01T01:00:00 01:00</time>
      </trkpt>
      <trkpt lat="48.75193" lon="2.27593">
        <ele>87</ele>
        <time>2010-01-01T01:00:00 01:00</time>
      </trkpt>
      <trkpt lat="48.75193" lon="2.27593">
        <ele>87</ele>
        <time>2010-01-01T01:00:00 01:00</time>
      </trkpt>
      <trkpt lat="48.75178" lon="2.27646">
        <ele>85</ele>
        <time>2010-01-01T01:00:00 01:00</time>
      </trkpt>
      <trkpt lat="48.75178" lon="2.27685">
        <ele>84</ele>
        <time>2010-01-01T01:00:00 01:00</time>
      </trkpt>
      <trkpt lat="48.75178" lon="2.27687">
        <ele>84</ele>
        <time>2010-01-01T01:00:00 01:00</time>
      </trkpt>
      <trkpt lat="48.75178" lon="2.27687">
        <ele>84</ele>
        <time>2010-01-01T01:00:00 01:00</time>
      </trkpt>
      <trkpt lat="48.75143" lon="2.27736">
        <ele>84</ele>
        <time>2010-01-01T01:00:00 01:00</time>
      </trkpt>
      <trkpt lat="48.75143" lon="2.27736">
        <ele>84</ele>
        <time>2010-01-01T01:00:00 01:00</time>
      </trkpt>
      <trkpt lat="48.75132" lon="2.27765">
        <ele>84</ele>
        <time>2010-01-01T01:00:00 01:00</time>
      </trkpt>
      <trkpt lat="48.75132" lon="2.27765">
        <ele>84</ele>
        <time>2010-01-01T01:00:00 01:00</time>
      </trkpt>
      <trkpt lat="48.75137" lon="2.2781">
        <ele>83</ele>
        <time>2010-01-01T01:00:00 01:00</time>
      </trkpt>
      <trkpt lat="48.75137" lon="2.2781">
        <ele>83</ele>
        <time>2010-01-01T01:00:00 01:00</time>
      </trkpt>
      <trkpt lat="48.75188" lon="2.27944">
        <ele>83</ele>
        <time>2010-01-01T01:00:00 01:00</time>
      </trkpt>
      <trkpt lat="48.75188" lon="2.27944">
        <ele>83</ele>
        <time>2010-01-01T01:00:00 01:00</time>
      </trkpt>
      <trkpt lat="48.75163" lon="2.2796">
        <ele>84</ele>
        <time>2010-01-01T01:00:00 01:00</time>
      </trkpt>
      <trkpt lat="48.7514" lon="2.28079">
        <ele>79</ele>
        <time>2010-01-01T01:00:00 01:00</time>
      </trkpt>
      <trkpt lat="48.75156" lon="2.2811">
        <ele>80</ele>
        <time>2010-01-01T01:00:00 01:00</time>
      </trkpt>
      <trkpt lat="48.75156" lon="2.2811">
        <ele>80</ele>
        <time>2010-01-01T01:00:00 01:00</time>
      </trkpt>
      <trkpt lat="48.75158" lon="2.28194">
        <ele>80</ele>
        <time>2010-01-01T01:00:00 01:00</time>
      </trkpt>
      <trkpt lat="48.75155" lon="2.28193">
        <ele>80</ele>
        <time>2010-01-01T01:00:00 01:00</time>
      </trkpt>
      <trkpt lat="48.75155" lon="2.28193">
        <ele>80</ele>
        <time>2010-01-01T01:00:00 01:00</time>
      </trkpt>
      <trkpt lat="48.75084" lon="2.28235">
        <ele>76</ele>
        <time>2010-01-01T01:00:00 01:00</time>
      </trkpt>
      <trkpt lat="48.75079" lon="2.28229">
        <ele>76</ele>
        <time>2010-01-01T01:00:00 01:00</time>
      </trkpt>
      <trkpt lat="48.75079" lon="2.28229">
        <ele>76</ele>
        <time>2010-01-01T01:00:00 01:00</time>
      </trkpt>
      <trkpt lat="48.75067" lon="2.28236">
        <ele>75</ele>
        <time>2010-01-01T01:00:00 01:00</time>
      </trkpt>
      <trkpt lat="48.75059" lon="2.28232">
        <ele>75</ele>
        <time>2010-01-01T01:00:00 01:00</time>
      </trkpt>
      <trkpt lat="48.7505" lon="2.2824">
        <ele>74</ele>
        <time>2010-01-01T01:00:00 01:00</time>
      </trkpt>
      <trkpt lat="48.75044" lon="2.28239">
        <ele>74</ele>
        <time>2010-01-01T01:00:00 01:00</time>
      </trkpt>
      <trkpt lat="48.75038" lon="2.28227">
        <ele>74</ele>
        <time>2010-01-01T01:00:00 01:00</time>
      </trkpt>
      <trkpt lat="48.75025" lon="2.28227">
        <ele>73</ele>
        <time>2010-01-01T01:00:00 01:00</time>
      </trkpt>
      <trkpt lat="48.75025" lon="2.28227">
        <ele>73</ele>
        <time>2010-01-01T01:00:00 01:00</time>
      </trkpt>
      <trkpt lat="48.75" lon="2.28246">
        <ele>72</ele>
        <time>2010-01-01T01:00:00 01:00</time>
      </trkpt>
      <trkpt lat="48.7497" lon="2.28272">
        <ele>72</ele>
        <time>2010-01-01T01:00:00 01:00</time>
      </trkpt>
      <trkpt lat="48.74957" lon="2.28301">
        <ele>72</ele>
        <time>2010-01-01T01:00:00 01:00</time>
      </trkpt>
      <trkpt lat="48.74957" lon="2.28301">
        <ele>72</ele>
        <time>2010-01-01T01:00:00 01:00</time>
      </trkpt>
      <trkpt lat="48.74944" lon="2.28296">
        <ele>71</ele>
        <time>2010-01-01T01:00:00 01:00</time>
      </trkpt>
      <trkpt lat="48.74928" lon="2.28318">
        <ele>71</ele>
        <time>2010-01-01T01:00:00 01:00</time>
      </trkpt>
      <trkpt lat="48.74928" lon="2.28319">
        <ele>71</ele>
        <time>2010-01-01T01:00:00 01:00</time>
      </trkpt>
      <trkpt lat="48.74916" lon="2.28341">
        <ele>70</ele>
        <time>2010-01-01T01:00:00 01:00</time>
      </trkpt>
      <trkpt lat="48.74903" lon="2.28357">
        <ele>70</ele>
        <time>2010-01-01T01:00:00 01:00</time>
      </trkpt>
      <trkpt lat="48.74903" lon="2.28357">
        <ele>70</ele>
        <time>2010-01-01T01:00:00 01:00</time>
      </trkpt>
      <trkpt lat="48.74876" lon="2.28387">
        <ele>68</ele>
        <time>2010-01-01T01:00:00 01:00</time>
      </trkpt>
      <trkpt lat="48.74879" lon="2.28405">
        <ele>68</ele>
        <time>2010-01-01T01:00:00 01:00</time>
      </trkpt>
      <trkpt lat="48.74878" lon="2.28405">
        <ele>68</ele>
        <time>2010-01-01T01:00:00 01:00</time>
      </trkpt>
      <trkpt lat="48.74865" lon="2.28404">
        <ele>68</ele>
        <time>2010-01-01T01:00:00 01:00</time>
      </trkpt>
      <trkpt lat="48.74865" lon="2.28404">
        <ele>68</ele>
        <time>2010-01-01T01:00:00 01:00</time>
      </trkpt>
      <trkpt lat="48.74865" lon="2.28404">
        <ele>68</ele>
        <time>2010-01-01T01:00:00 01:00</time>
      </trkpt>
      <trkpt lat="48.74814" lon="2.28469">
        <ele>65</ele>
        <time>2010-01-01T01:00:00 01:00</time>
      </trkpt>
      <trkpt lat="48.7475" lon="2.28539">
        <ele>61</ele>
        <time>2010-01-01T01:00:00 01:00</time>
      </trkpt>
      <trkpt lat="48.7475" lon="2.28539">
        <ele>61</ele>
        <time>2010-01-01T01:00:00 01:00</time>
      </trkpt>
      <trkpt lat="48.74684" lon="2.28615">
        <ele>59</ele>
        <time>2010-01-01T01:00:00 01:00</time>
      </trkpt>
      <trkpt lat="48.74654" lon="2.2866">
        <ele>59</ele>
        <time>2010-01-01T01:00:00 01:00</time>
      </trkpt>
      <trkpt lat="48.74654" lon="2.2866">
        <ele>59</ele>
        <time>2010-01-01T01:00:00 01:00</time>
      </trkpt>
      <trkpt lat="48.74605" lon="2.28709">
        <ele>56</ele>
        <time>2010-01-01T01:00:00 01:00</time>
      </trkpt>
      <trkpt lat="48.74571" lon="2.28749">
        <ele>55</ele>
        <time>2010-01-01T01:00:00 01:00</time>
      </trkpt>
      <trkpt lat="48.74571" lon="2.28749">
        <ele>55</ele>
        <time>2010-01-01T01:00:00 01:00</time>
      </trkpt>
      <trkpt lat="48.74537" lon="2.28753">
        <ele>53</ele>
        <time>2010-01-01T01:00:00 01:00</time>
      </trkpt>
      <trkpt lat="48.74481" lon="2.28795">
        <ele>53</ele>
        <time>2010-01-01T01:00:00 01:00</time>
      </trkpt>
      <trkpt lat="48.7449" lon="2.2883">
        <ele>53</ele>
        <time>2010-01-01T01:00:00 01:00</time>
      </trkpt>
      <trkpt lat="48.7449" lon="2.2883">
        <ele>53</ele>
        <time>2010-01-01T01:00:00 01:00</time>
      </trkpt>
      <trkpt lat="48.74524" lon="2.28906">
        <ele>52</ele>
        <time>2010-01-01T01:00:00 01:00</time>
      </trkpt>
      <trkpt lat="48.74569" lon="2.29003">
        <ele>52</ele>
        <time>2010-01-01T01:00:00 01:00</time>
      </trkpt>
      <trkpt lat="48.74569" lon="2.29003">
        <ele>52</ele>
        <time>2010-01-01T01:00:00 01:00</time>
      </trkpt>
      <trkpt lat="48.74569" lon="2.29003">
        <ele>52</ele>
        <time>2010-01-01T01:00:00 01:00</time>
      </trkpt>
      <trkpt lat="48.7458" lon="2.29046">
        <ele>52</ele>
        <time>2010-01-01T01:00:00 01:00</time>
      </trkpt>
      <trkpt lat="48.74607" lon="2.29201">
        <ele>53</ele>
        <time>2010-01-01T01:00:00 01:00</time>
      </trkpt>
      <trkpt lat="48.74632" lon="2.2923">
        <ele>53</ele>
        <time>2010-01-01T01:00:00 01:00</time>
      </trkpt>
      <trkpt lat="48.74632" lon="2.2923">
        <ele>53</ele>
        <time>2010-01-01T01:00:00 01:00</time>
      </trkpt>
      <trkpt lat="48.74632" lon="2.29231">
        <ele>53</ele>
        <time>2010-01-01T01:00:00 01:00</time>
      </trkpt>
      <trkpt lat="48.74652" lon="2.29231">
        <ele>53</ele>
        <time>2010-01-01T01:00:00 01:00</time>
      </trkpt>
      <trkpt lat="48.74653" lon="2.29232">
        <ele>53</ele>
        <time>2010-01-01T01:00:00 01:00</time>
      </trkpt>
      <trkpt lat="48.74711" lon="2.2932">
        <ele>55</ele>
        <time>2010-01-01T01:00:00 01:00</time>
      </trkpt>
      <trkpt lat="48.74744" lon="2.29337">
        <ele>54</ele>
        <time>2010-01-01T01:00:00 01:00</time>
      </trkpt>
      <trkpt lat="48.74744" lon="2.29337">
        <ele>54</ele>
        <time>2010-01-01T01:00:00 01:00</time>
      </trkpt>
      <trkpt lat="48.74765" lon="2.29363">
        <ele>54</ele>
        <time>2010-01-01T01:00:00 01:00</time>
      </trkpt>
      <trkpt lat="48.74765" lon="2.29363">
        <ele>54</ele>
        <time>2010-01-01T01:00:00 01:00</time>
      </trkpt>
      <trkpt lat="48.74799" lon="2.29369">
        <ele>55</ele>
        <time>2010-01-01T01:00:00 01:00</time>
      </trkpt>
      <trkpt lat="48.74799" lon="2.29369">
        <ele>55</ele>
        <time>2010-01-01T01:00:00 01:00</time>
      </trkpt>
    </trkseg>
  </trk>
</gpx>